Location: Boss Branch
(32.3799°N, 97.2508°W)
Time: 20:44:22
(UTC+00:00)

Envisat - Pass Details

Date: 07 October 2024
Orbit: 762 x 763 km, 98.3° (Epoch: 01 November)

Event Time Altitude Azimuth Distance (km) Brightness Sun altitude
Rises 10:18:08 0° 359° (N) 3,228 6.4 -28.0°
Reaches altitude 10° 10:20:41 10° 348° (NNW) 2,299 5.5 -27.5°
Enters shadow 10:20:56 11° 347° (NNW) 2,212 5.3 -27.4°
